Location: ?????????
(53.2086°N, 54.0693°E)
Time: 10:58:38
(UTC+00:00)

Cosmos 1943 Rocket - Pass Details

Date: 08 December 2019
Orbit: 812 x 844 km, 71.0° (Epoch: 21 January)

Event Time Altitude Azimuth Distance (km) Brightness Sun altitude
Rises 16:52:52 0° 323° (NW) 3,409 6.0 -41.3°
Reaches altitude 10° 16:55:38 10° 312° (NW) 2,466 5.2 -41.7°
Enters shadow 16:57:41 19° 296° (WNW) 1,885 4.5 -41.9°
